This is the latest recevied weather packets stored in our database for station/object OK2JF-6. If no packets are shown the sender has not sent any weather packets the latest 10 day(s).
| Time | Temp. | Humidity | Pressure | Rain* | Wind** | Luminosity | Snow |
|---|---|---|---|---|---|---|---|
| 1777709058 | 22.78° C | 34% | 1097.2 hPa | 0 mm | - | 375 W/m² | - |
| 1777709043 | 22.78° C | 34% | 1097.2 hPa | 0 mm | - | 374 W/m² | - |
| 1777708397 | 23.33° C | 35% | 1097.2 hPa | 0 mm | - | 356 W/m² | - |
| 1777708337 | 23.33° C | 34% | 1097.3 hPa | 0 mm | - | 355 W/m² | - |
| 1777708024 | 23.33° C | 36% | 1097.2 hPa | 0 mm | - | 347 W/m² | - |
| 1777707963 | 23.33° C | 36% | 1097 hPa | 0 mm | - | 345 W/m² | - |
| 1777707903 | 22.78° C | 35% | 1097.1 hPa | 0 mm | - | 344 W/m² | - |
| 1777707603 | 22.78° C | 36% | 1097.3 hPa | 0 mm | - | 337 W/m² | - |
| 1777707423 | 22.78° C | 35% | 1097 hPa | 0 mm | - | 330 W/m² | - |
| 1777707363 | 22.78° C | 35% | 1097.1 hPa | 0 mm | - | 328 W/m² | - |
| 1777706537 | 22.22° C | 37% | 1097.2 hPa | 0 mm | - | 256 W/m² | - |
| 1777706523 | 22.22° C | 38% | 1097.2 hPa | 0 mm | - | 275 W/m² | - |
| 1777706283 | 21.67° C | 37% | 1097 hPa | 0 mm | - | 296 W/m² | - |
| 1777706043 | 21.11° C | 37% | 1097 hPa | 0 mm | - | 289 W/m² | - |
| 1777705984 | 21.11° C | 40% | 1097 hPa | 0 mm | - | 287 W/m² | - |
| 1777705923 | 21.11° C | 39% | 1097.1 hPa | 0 mm | - | 285 W/m² | - |
| 1777705743 | 20.56° C | 39% | 1097 hPa | 0 mm | - | 281 W/m² | - |
| 1777705683 | 20.56° C | 40% | 1097 hPa | 0 mm | - | 278 W/m² | - |
| 1777705084 | 19.44° C | 40% | 1097.1 hPa | 0 mm | - | 260 W/m² | - |
| 1777704963 | 19.44° C | 40% | 1096.9 hPa | 0 mm | - | 256 W/m² | - |
| 1777704663 | 19.44° C | 44% | 1096.9 hPa | 0 mm | - | 247 W/m² | - |
| 1777704379 | 18.89° C | 47% | 1097.1 hPa | 0 mm | - | 237 W/m² | - |
| 1777703583 | 16.11° C | 51% | 1096.9 hPa | 0 mm | - | 213 W/m² | - |
| 1777703463 | 15.56° C | 53% | 1097.1 hPa | 0 mm | - | 210 W/m² | - |
| 1777703403 | 15.56° C | 52% | 1097.1 hPa | 0 mm | - | 209 W/m² | - |
* Rain latest hour (hover to see other rain measurements)
** Current wind speed in m/s (hover to see current wind gust speed)